User: anonymous   Login
Location: Laverne
(36.7100°N, 99.8930°W)
Time: 23:30:25
(UTC-05:00)
Language:

Iridium 32 - Orbit

View from above orbital plane
View from above orbital plane
View from above satellite
View from above satellite

Ground track
Ground track

The orbit data is extracted from the following two-line orbital elements,

1 24945U 97051B   16177.21500817  .00000206  00000-0  66483-4 0  9991
2 24945  86.3969  76.3580 0002292  86.2669 273.8789 14.34217460983251
Epoch (UTC): 25 June 2016 05:09:36
Eccentricity: 0.0002292
inclination: 86.3969°
perigee height: 776 km
apogee height: 779 km
right ascension of ascending node: 76.3580°
argument of perigee: 86.2669°
revolutions per day: 14.34217460
mean anomaly at epoch: 273.8789°
orbit number at epoch: 98325

The dashed part of the orbit path shows where the satellite is in the earth's shadow,  

DLR